Weather History for K4A9 - January, 2012

Change the Weather History Date:

Sunday, January 8, 2012

  Actual Average (KRMG) Record (KRMG)
Temperature  
Mean Temperature 54 °F 41 °F  
Max Temperature 59 °F 51 °F 70 °F (2006)
Min Temperature 50 °F 30 °F 9 °F (2015)
Degree Days  
Heating Degree Days 10 24  
Month to date heating degree days 192  
Since 1 July heating degree days 1492  
Growing Degree Days 4 (Base 50)    
Moisture  
Dew Point 52 °F    
Average Humidity 93    
Maximum Humidity 100    
Minimum Humidity 88    
Precipitation  
Precipitation 0.42 in 0.12 in 0.64 in (2012)
Month to date precipitation 0.88  
Year to date precipitation 0.88  
Sea Level Pressure  
Sea Level Pressure 30.14 in    
Wind  
Wind Speed 0 mph (South)    
Max Wind Speed 4 mph    
Max Gust Speed -    
Visibility 5 miles    
Events Fog , Rain    
T = Trace of Precipitation, MM = Missing Value Source: NWS Daily Summary

Daily Weather History Graph

Daily Weather History Graph

Search for Another Location

Airport or City:

Trip Planner

Search our weather history database for the weather conditions in past years. The results will help you decide how hot, cold, wet, or windy it might be!

Date:

Astronomy

Jan. 08, 2012 Rise Set
Actual Time 6:50 AM CST 4:48 PM CST
Civil Twilight 6:22 AM CST 5:16 PM CST
Nautical Twilight 5:51 AM CST 5:47 PM CST
Astronomical Twilight 5:20 AM CST 6:18 PM CST
Moon 4:30 PM CST (1/8) 6:08 AM CST (1/8)
Length of Visible Light 10h 54m
Length of Day
9h 58m
Full, 100% of the Moon is Illuminated
Jan 8
Full
Jan 9
Full
Jan 16
Last Quarter
Jan 23
New
Jan 30
First Quarter

Hourly Weather History & Observations

Time (CST) Temp. Dew Point Humidity Pressure Visibility Wind Dir Wind Speed Gust Speed Precip Events Conditions
12:15 AM 50.0 °F 48.2 °F 94% 30.12 in 0.5 mi Calm Calm - N/A Fog Fog
12:35 AM 51.8 °F 50.0 °F 94% 30.13 in 1.0 mi Calm Calm - 0.04 in Rain Rain
12:55 AM 51.8 °F 50.0 °F 94% 30.13 in 5.0 mi Calm Calm - 0.06 in Rain Light Rain
1:15 AM 51.8 °F 50.0 °F 94% 30.12 in 4.0 mi North 3.5 mph - N/A Rain Light Rain
1:35 AM 50.0 °F 48.2 °F 94% 30.12 in 2.5 mi Calm Calm - N/A   Overcast
1:55 AM 50.0 °F 50.0 °F 100% 30.13 in 0.8 mi Calm Calm - N/A Rain Light Rain
2:15 AM 51.8 °F 50.0 °F 94% 30.13 in 1.0 mi Calm Calm - N/A   Overcast
2:35 AM 50.0 °F 48.2 °F 94% 30.12 in 0.8 mi Calm Calm - N/A   Overcast
2:55 AM 50.0 °F 48.2 °F 94% 30.12 in 0.8 mi Calm Calm - N/A Rain Light Rain
3:15 AM 50.0 °F 48.2 °F 94% 30.12 in 0.5 mi Calm Calm - N/A Fog Fog
3:35 AM 50.0 °F 48.2 °F 94% 30.12 in 0.8 mi Calm Calm - 0.02 in Rain Light Rain
4:15 AM 50.0 °F 48.2 °F 94% 30.13 in 4.0 mi Calm Calm - N/A   Overcast
4:35 AM 51.8 °F 50.0 °F 94% 30.13 in 7.0 mi Calm Calm - N/A   Overcast
4:55 AM 50.0 °F 50.0 °F 100% 30.13 in 5.0 mi Calm Calm - N/A   Overcast
5:15 AM 50.0 °F 48.2 °F 94% 30.13 in 4.0 mi Calm Calm - N/A   Overcast
5:35 AM 50.0 °F 50.0 °F 100% 30.13 in 5.0 mi Calm Calm - N/A Rain Light Rain
5:55 AM 51.8 °F 50.0 °F 94% 30.13 in 5.0 mi Calm Calm - 0.01 in Rain Rain
6:15 AM 51.8 °F 50.0 °F 94% 30.14 in 4.0 mi Calm Calm - 0.04 in Rain Heavy Rain
6:35 AM 51.8 °F 50.0 °F 94% 30.14 in 4.0 mi Calm Calm - 0.09 in Rain Rain
6:55 AM 51.8 °F 50.0 °F 94% 30.15 in 4.0 mi Calm Calm - 0.11 in Rain Rain
7:15 AM 51.8 °F 50.0 °F 94% 30.16 in 3.0 mi Calm Calm - 0.04 in Rain Rain
7:35 AM 51.8 °F 50.0 °F 94% 30.16 in 2.0 mi Calm Calm - 0.12 in Rain Rain
7:55 AM 51.8 °F 50.0 °F 94% 30.16 in 3.0 mi Calm Calm - 0.13 in Rain Light Rain
8:15 AM 51.8 °F 50.0 °F 94% 30.16 in 4.0 mi Calm Calm - 0.02 in Rain Light Rain
8:35 AM 51.8 °F 50.0 °F 94% 30.17 in 4.0 mi Calm Calm - 0.03 in Rain Light Rain
8:55 AM 53.6 °F 51.8 °F 94% 30.18 in 5.0 mi Calm Calm - 0.04 in Rain Light Rain
9:15 AM 53.6 °F 51.8 °F 94% 30.18 in 4.0 mi Calm Calm - N/A   Drizzle
9:35 AM 53.6 °F 51.8 °F 94% 30.19 in 7.0 mi Calm Calm - N/A   Overcast
9:55 AM 53.6 °F 51.8 °F 94% 30.18 in 5.0 mi Calm Calm - N/A   Overcast
10:15 AM 55.4 °F 53.6 °F 94% 30.18 in 7.0 mi Calm Calm - N/A Rain Light Rain
10:35 AM 55.4 °F 53.6 °F 94% 30.17 in 7.0 mi Calm Calm - N/A   Overcast
10:55 AM 55.4 °F 53.6 °F 94% 30.17 in 10.0 mi Calm Calm - N/A   Overcast
11:15 AM 55.4 °F 53.6 °F 94% 30.17 in 10.0 mi Calm Calm - N/A   Overcast
11:35 AM 57.2 °F 55.4 °F 94% 30.16 in 7.0 mi Calm Calm - N/A   Overcast
11:55 AM 57.2 °F 55.4 °F 94% 30.15 in 7.0 mi Calm Calm - N/A   Overcast
12:15 PM 57.2 °F 55.4 °F 94% 30.15 in 10.0 mi Calm Calm - N/A   Overcast
12:35 PM 57.2 °F 55.4 °F 94% 30.15 in 4.0 mi Calm Calm - 0.02 in Rain Rain
12:55 PM 57.2 °F 55.4 °F 94% 30.14 in 3.0 mi Calm Calm - 0.03 in Rain Light Rain
1:15 PM 57.2 °F 55.4 °F 94% 30.14 in 3.0 mi Calm Calm - 0.02 in Rain Rain
1:35 PM 59.0 °F 55.4 °F 88% 30.13 in 4.0 mi Calm Calm - 0.02 in Rain Light Rain
1:55 PM 59.0 °F 55.4 °F 88% 30.13 in 7.0 mi Calm Calm - 0.02 in   Overcast
2:15 PM 59.0 °F 55.4 °F 88% 30.13 in 10.0 mi Calm Calm - N/A   Overcast
2:35 PM 59.0 °F 55.4 °F 88% 30.13 in 10.0 mi Calm Calm - N/A   Overcast
2:55 PM 59.0 °F 55.4 °F 88% 30.13 in 10.0 mi Calm Calm - N/A   Overcast
3:15 PM 59.0 °F 55.4 °F 88% 30.13 in 10.0 mi Calm Calm - N/A   Overcast
3:35 PM 59.0 °F 55.4 °F 88% 30.14 in 10.0 mi Calm Calm - N/A   Overcast
3:55 PM 59.0 °F 55.4 °F 88% 30.14 in 10.0 mi Calm Calm - N/A   Overcast
4:15 PM 59.0 °F 55.4 °F 88% 30.14 in 7.0 mi Calm Calm - N/A   Overcast
4:35 PM 59.0 °F 55.4 °F 88% 30.14 in 4.0 mi Calm Calm - N/A   Overcast
4:55 PM 59.0 °F 55.4 °F 88% 30.15 in 3.0 mi Calm Calm - N/A   Overcast
5:15 PM 59.0 °F 55.4 °F 88% 30.15 in 3.0 mi Calm Calm - N/A   Overcast
5:35 PM 57.2 °F 55.4 °F 94% 30.16 in 3.0 mi Calm Calm - N/A   Overcast
5:55 PM 57.2 °F 55.4 °F 94% 30.16 in 4.0 mi Calm Calm - N/A   Light Drizzle
6:15 PM 55.4 °F 53.6 °F 94% 30.17 in 4.0 mi Calm Calm - N/A   Overcast
6:35 PM 55.4 °F 53.6 °F 94% 30.18 in 4.0 mi NE 4.6 mph - N/A   Light Drizzle
6:55 PM 55.4 °F 53.6 °F 94% 30.18 in 5.0 mi North 3.5 mph - N/A   Overcast
7:35 PM 55.4 °F 53.6 °F 94% 30.18 in 4.0 mi NE 4.6 mph - N/A   Overcast
7:55 PM 55.4 °F 53.6 °F 94% 30.18 in 4.0 mi ENE 4.6 mph - N/A   Overcast
8:15 PM 55.4 °F 53.6 °F 94% 30.18 in 4.0 mi NNE 3.5 mph - N/A   Overcast
8:35 PM 53.6 °F 51.8 °F 94% 30.18 in 4.0 mi NNE 5.8 mph - N/A   Overcast
8:55 PM 53.6 °F 51.8 °F 94% 30.17 in 4.0 mi NE 4.6 mph - N/A   Overcast
9:15 PM 53.6 °F 51.8 °F 94% 30.17 in 4.0 mi NE 4.6 mph - N/A   Overcast
9:35 PM 53.6 °F 51.8 °F 94% 30.17 in 4.0 mi NE 4.6 mph - N/A   Overcast
9:55 PM 53.6 °F 51.8 °F 94% 30.17 in 5.0 mi NE 3.5 mph - N/A   Overcast
10:15 PM 53.6 °F 51.8 °F 94% 30.17 in 4.0 mi NNE 3.5 mph - N/A   Overcast
10:35 PM 53.6 °F 51.8 °F 94% 30.17 in 3.0 mi Calm Calm - N/A   Overcast
10:55 PM 53.6 °F 51.8 °F 94% 30.16 in 3.0 mi Calm Calm - N/A   Overcast
11:15 PM 53.6 °F 51.8 °F 94% 30.16 in 2.5 mi Calm Calm - N/A   Overcast
11:35 PM 53.6 °F 51.8 °F 94% 30.15 in 3.0 mi Calm Calm - N/A   Overcast
11:55 PM 51.8 °F 50.0 °F 94% 30.14 in 2.5 mi Calm Calm - N/A   Overcast